SCP
0 0 0 0 0 0 0 0 0 0 0 0 0 0 0 0 0 0 0 0 0 0 1 1 1 1 0 0 0 0 0 0 0 0 0 0 0 0 0 0 0 0 0 0 0 0 0 0 0
0 0 0 0 0 0 0 0 0 0 0 0 0 0 0 0 0 0 0 0 0 0 1 1 1 1 0 0 0 0 0 0 0 0 0 0 0 0 0 0 0 0 0 0 0 0 0 0 0
0 0 0 0 0 0 0 0 0 0 0 0 0 0 0 0 0 0 0 0 0 0 1 1 1 1 0 0 0 0 0 0 0 0 0 0 0 0 0 0 0 0 0 0 0 0 0 0 0
0 0 0 0 0 0 0 0 0 0 0 0 0 0 0 0 0 0 0 0 0 0 1 1 1 1 0 0 0 0 0 0 0 0 0 0 0 0 0 0 0 0 0 0 0 0 0 0 0
0 0 0 0 0 0 0 0 0 0 0 0 0 0 0 0 0 0 0 0 0 0 1 1 1 1 0 0 0 0 0 0 0 0 0 0 0 0 0 0 0 0 0 0 0 0 0 0 0
0 0 0 0 0 0 0 0 0 0 0 0 0 0 0 0 0 0 0 0 0 0 1 1 1 1 1 0 0 0 0 0 0 0 0 0 0 0 0 0 0 0 0 0 0 0 0 0 0
0 0 0 0 0 0 0 0 0 0 0 0 0 0 0 0 0 0 0 0 0 0 0 1 1 1 0 0 0 0 0 0 0 0 0 0 0 0 0 0 0 0 0 0 0 0 0 0 0
0 0 0 0 0 0 0 0 0 0 0 0 0 0 0 0 0 0 0 0 0 0 0 1 0 0 0 0 0 0 0 0 0 0 0 0 0 0 0 0 0 0 0 0 0 0 0 0 0
0 0 0 0 0 0 0 0 0 0 0 0 0 0 0 0 0 0 0 0 0 0 0 0 0 0 0 0 0 0 0 0 0 0 0 0 0 0 0 0 0 0 0 0 0 0 0 0 0
0 0 0 0 0 0 0 0 0 0 0 0 0 0 0 0 0 0 0 0 0 0 0 0 0 0 0 0 0 0 0 0 0 0 0 0 0 0 0 0 0 0 0 0 0 0 0 0 0
0 0 0 0 0 0 0 0 0 0 0 0 0 0 0 0 0 0 0 0 0 0 0 0 0 0 0 0 0 0 0 0 0 0 0 0 0 0 0 0 0 0 0 0 0 0 0 0 0
0 0 0 0 0 0 0 0 0 0 0 0 0 0 0 0 0 0 0 0 0 0 0 0 0 0 0 0 0 0 0 0 0 0 0 0 0 0 0 0 0 0 0 0 0 0 0 0 0
0 0 0 0 0 0 0 0 0 0 0 0 0 0 0 0 0 0 0 0 0 0 0 0 0 0 0 0 0 0 0 0 0 0 0 0 0 0 0 0 0 0 0 0 0 0 0 0 0
0 0 0 0 0 0 0 0 0 0 0 0 0 0 0 0 0 0 0 0 0 0 0 0 0 0 0 0 0 0 0 0 0 0 0 0 0 0 0 0 0 0 0 0 0 0 0 0 0
0 0 0 0 0 0 0 0 0 0 0 0 0 0 0 0 0 0 0 0 0 0 0 0 0 0 0 0 0 0 0 0 0 0 0 0 0 0 0 0 0 0 0 0 0 0 0 0 0
0 0 0 0 0 0 0 0 0 0 0 0 0 0 0 0 0 0 0 0 0 0 0 0 0 0 0 0 0 0 0 0 0 0 0 0 0 0 0 0 0 0 0 0 0 0 0 0 0
0 0 0 0 0 0 0 0 0 0 0 0 0 0 0 0 0 0 0 0 0 0 0 0 0 0 0 0 0 0 0 0 0 0 0 0 0 0 0 0 0 0 0 0 0 0 0 0 0
0 0 0 0 0 0 0 0 0 0 0 0 0 0 0 0 0 0 0 0 0 0 0 0 0 0 0 0 0 0 0 0 0 0 0 0 0 0 0 0 0 0 0 0 0 0 0 0 0
0 0 0 0 0 0 0 0 0 0 0 0 0 0 0 0 0 0 0 0 0 0 0 0 0 0 0 0 0 0 0 0 0 0 0 0 0 0 0 0 0 0 0 0 0 0 0 0 0
0 0 0 0 0 0 0 0 0 0 0 0 0 0 0 0 0 0 0 0 0 0 0 0 0 0 0 0 0 0 0 0 0 0 0 0 0 0 0 0 0 0 0 0 0 0 0 0 0
0 0 0 0 0 0 0 0 0 0 0 0 0 0 0 0 0 0 0 0 0 0 0 0 0 0 0 0 0 0 0 0 0 0 0 0 0 0 0 0 0 0 0 0 0 0 0 0 0
0 0 0 0 0 0 0 0 0 0 0 0 0 0 0 0 0 0 0 0 0 0 0 0 0 0 0 0 0 0 0 0 0 0 0 0 0 0 0 0 0 0 0 0 0 0 0 0 0
0 0 0 0 0 0 0 0 0 0 0 0 0 0 0 0 0 0 0 0 0 0 0 0 0 0 0 0 0 0 0 0 0 0 0 0 0 0 0 0 0 0 0 0 0 0 0 0 0
0 0 0 0 0 0 0 0 0 0 0 0 0 0 0 0 0 0 0 0 0 0 0 0 0 0 0 0 0 0 0 0 0 0 0 0 0 0 0 0 0 0 0 0 0 0 0 0 0
0 0 0 0 0 0 0 0 0 0 0 0 0 0 0 0 0 0 0 0 0 0 0 0 0 0 0 0 0 0 0 0 0 0 0 0 0 0 0 0 0 0 0 0 0 0 0 0 0
0 0 0 0 0 0 0 0 0 0 0 0 0 0 0 0 0 0 0 0 0 0 0 0 0 0 0 0 0 0 0 0 0 0 0 0 0 0 0 0 0 0 0 0 0 0 0 0 0
0 0 0 0 0 0 0 0 0 0 0 0 0 0 0 0 0 0 0 0 0 0 0 0 0 0 0 0 0 0 0 0 0 0 0 0 0 0 0 0 0 0 0 0 0 0 0 0 0
0 0 0 0 0 0 0 0 0 0 0 0 0 0 0 0 0 0 0 0 0 0 0 0 0 0 0 0 0 0 0 0 0 0 0 0 0 0 0 0 0 0 0 0 0 0 0 0 0
0 0 0 0 0 0 0 0 0 0 0 0 0 0 0 0 0 0 0 0 0 0 0 0 0 0 0 0 0 0 0 0 0 0 0 0 0 0 0 0 0 0 0 0 0 0 0 0 0
0 0 0 0 0 0 0 0 0 0 0 0 0 0 0 0 0 0 0 0 0 0 0 0 0 0 0 0 0 0 0 0 0 0 0 0 0 0 0 0 0 0 0 0 0 0 0 0 0
Wind_Speed
9 11 8 2 3 4 3 3 3 5 4 7 5 4 5 4 5 5 4 6 10 13 16 17 19 18 16 14 13 12 11 11 10 10 9 9 10 10 10 10 10 11 11 11 11 11 12 12 12
10 8 4 3 4 4 2 3 4 6 6 3 1 2 3 3 6 8 5 5 9 13 15 14 18 18 16 15 14 13 12 11 10 9 9 8 9 9 9 9 9 10 10 10 10 10 10 10 10
10 7 4 4 4 2 4 5 6 5 3 1 2 2 2 3 6 6 5 6 8 11 13 15 19 18 17 15 14 13 12 11 10 9 9 8 8 8 8 8 8 8 8 8 9 9 9 9 9
5 3 4 5 4 3 5 5 5 2 1 1 2 4 2 6 5 6 6 5 7 10 12 15 20 18 17 15 14 13 12 11 10 9 8 8 8 8 8 7 7 7 7 7 7 7 7 7 7
3 4 5 5 2 4 4 6 3 3 2 0 1 4 3 6 9 8 6 4 5 9 12 16 19 18 17 15 14 13 12 11 10 9 8 8 7 7 7 6 5 5 5 5 5 5 6 6 6
4 4 5 4 1 4 3 4 2 4 4 3 2 4 4 6 7 5 5 3 4 8 11 15 18 17 16 15 15 14 13 11 10 9 9 8 7 7 7 6 5 4 3 3 3 3 3 4 4
4 4 6 5 2 2 3 5 4 6 7 6 4 5 4 6 5 3 3 3 4 8 10 13 11 12 15 15 14 14 13 12 11 10 9 8 7 7 7 6 5 4 3 2 1 1 1 1 2
3 4 6 4 3 2 4 4 2 4 5 5 3 3 3 2 3 2 3 3 4 6 8 12 10 9 9 9 12 13 12 12 11 10 9 8 7 7 7 6 6 5 4 3 3 2 2 3 3
3 3 5 4 4 4 5 3 4 3 3 3 2 2 3 3 2 2 3 3 4 4 6 10 11 9 8 8 10 10 11 10 9 8 9 8 5 5 6 7 8 6 5 5 5 5 5 5 6
2 3 6 4 5 6 7 6 5 4 5 4 4 6 5 2 1 1 2 4 6 6 6 7 10 10 8 7 7 5 6 6 6 5 6 5 4 4 5 7 9 8 7 8 8 8 8 6 4
3 5 5 4 5 5 6 6 5 4 4 4 5 6 5 3 2 1 2 2 4 7 6 6 7 9 7 5 5 3 3 4 5 5 7 5 4 3 3 3 4 5 6 5 7 6 4 5 4
4 6 5 4 4 2 5 5 5 4 2 3 4 4 4 3 3 2 1 1 3 6 6 5 6 8 7 6 4 4 3 3 3 4 5 4 3 3 3 3 3 4 3 4 4 3 5 6 6
6 5 3 2 1 4 4 5 4 3 1 3 3 2 3 4 4 3 2 2 3 5 7 5 5 7 6 6 4 4 4 4 4 3 3 4 3 3 3 3 3 3 3 4 4 4 5 5 6
5 6 7 5 4 2 3 4 3 2 3 2 2 4 5 5 5 5 4 4 3 5 6 5 5 6 6 4 4 3 3 3 3 3 3 4 3 3 3 3 3 3 3 3 4 5 5 5 4
3 7 8 6 5 3 1 5 5 5 3 2 4 6 5 6 6 6 5 4 4 5 5 5 4 5 6 5 4 3 2 3 2 2 3 4 3 3 3 3 3 3 4 4 4 5 4 4 4
7 6 5 5 5 5 3 4 5 6 4 3 5 7 6 6 7 6 6 5 5 6 6 5 4 3 4 4 3 2 2 2 1 1 2 3 3 4 3 3 3 4 3 3 3 4 4 4 5
7 6 5 4 5 4 4 3 4 6 5 4 5 7 7 7 7 7 6 6 6 6 7 6 5 3 4 4 3 2 1 1 1 1 1 2 3 3 3 3 3 4 3 4 4 4 4 5 5
5 5 5 1 4 2 5 4 4 6 6 6 6 7 7 7 7 6 7 7 7 7 7 6 5 3 4 3 3 2 1 0 0 1 2 2 3 3 3 3 4 4 3 4 4 5 5 5 5
6 7 9 5 2 1 6 6 4 5 6 6 7 8 8 7 7 6 7 7 7 7 7 6 5 4 4 3 2 1 0 1 1 1 2 3 3 4 4 3 4 4 4 5 5 5 6 5 4
5 8 9 4 3 1 6 6 4 6 7 7 8 8 8 8 7 6 6 6 6 6 6 6 5 5 4 3 2 1 0 1 1 1 2 3 3 4 3 4 4 4 4 6 6 6 5 4 4
7 8 6 5 3 5 5 5 7 7 6 5 7 9 9 8 8 7 7 7 7 6 5 5 5 5 4 3 2 2 1 2 1 2 2 3 4 4 4 5 4 4 4 5 6 6 7 6 5
7 3 2 4 4 4 5 4 6 9 8 8 7 8 8 8 7 7 7 7 6 5 4 5 5 5 3 2 2 1 1 1 2 1 2 3 4 4 4 4 5 5 4 5 6 6 5 6 6
1 2 3 4 5 6 6 6 6 12 10 11 9 9 9 8 8 7 7 6 6 5 4 3 4 4 3 2 2 1 2 2 2 3 4 4 4 4 4 4 4 5 5 6 6 6 6 5 6
1 2 6 4 3 6 8 8 4 10 14 13 11 10 10 9 8 7 7 6 5 4 3 3 3 3 2 2 1 1 2 3 4 5 4 4 3 4 4 4 4 5 5 6 6 7 8 7 8
3 3 3 3 4 6 2 4 3 5 7 12 14 12 10 9 8 7 7 6 5 4 3 2 3 2 2 2 2 2 2 3 4 4 4 4 4 4 5 4 4 5 6 6 7 7 8 8 9
7 4 4 3 3 1 1 4 1 5 4 6 10 11 11 9 8 7 6 6 5 4 3 2 2 1 1 1 2 2 3 2 3 4 4 5 4 5 6 5 6 6 7 7 7 6 7 7 8
4 5 2 3 6 4 5 4 3 3 3 4 8 11 10 9 8 7 7 6 5 4 3 2 1 1 1 2 2 3 4 4 4 5 5 5 5 5 6 6 7 7 8 8 8 7 8 8 8
3 3 1 3 4 5 6 6 6 8 8 7 7 9 9 8 8 7 6 5 5 4 3 1 1 0 1 2 2 3 4 4 5 5 6 7 7 6 7 7 7 8 8 8 8 8 8 9 9
6 4 4 4 4 2 4 2 3 8 10 9 8 8 8 8 7 6 5 5 4 4 2 1 0 1 2 2 3 4 5 5 6 6 7 7 7 7 7 8 8 8 9 8 8 8 9 10 9
5 7 6 4 5 4 3 3 3 5 6 7 7 7 7 8 6 6 5 5 3 3 2 1 1 1 2 2 3 5 5 6 6 7 7 7 7 7 8 8 9 9 10 9 9 10 10 10 10
Wind_Direction
273 252 241 247 248 238 238 83 65 57 49 47 33 340 329 23 34 85 136 119 120 135 146 160 159 156 154 152 148 143 139 133 125 118 111 105 100 94 88 82 76 73 69 65 62 62 62 62 61
281 255 245 243 248 249 137 100 76 59 59 47 292 275 308 53 79 105 119 108 124 136 144 160 160 158 157 155 152 148 144 138 132 126 119 114 109 102 93 85 80 75 71 66 64 63 63 62 60
272 265 251 234 248 300 75 67 63 65 71 357 318 309 336 45 66 86 109 126 131 136 147 158 160 160 159 159 156 153 149 144 139 135 128 124 116 108 99 90 84 77 72 69 65 63 63 61 58
257 238 244 251 262 50 49 65 52 17 90 202 321 316 39 61 67 94 112 134 141 140 145 153 162 163 162 162 160 158 155 152 147 144 140 133 124 115 107 98 91 85 78 71 66 62 59 58 55
239 251 242 252 258 79 59 51 29 310 298 311 7 316 32 67 86 100 116 139 149 143 142 152 163 165 165 166 164 161 159 159 156 153 151 144 136 127 121 113 105 98 89 78 69 62 56 50 48
255 258 265 258 157 93 88 75 353 312 340 347 0 324 71 82 78 87 113 154 153 137 138 150 165 166 168 169 167 164 164 164 163 160 161 158 152 146 141 135 131 122 107 91 76 63 52 42 34
286 283 288 306 360 59 65 56 1 353 338 346 9 332 94 60 58 75 113 150 134 131 135 145 162 166 170 172 171 169 169 170 169 170 168 167 164 163 158 155 157 158 154 144 119 62 20 358 349
310 304 288 294 320 2 62 58 358 335 322 341 5 337 52 58 58 69 98 108 115 128 140 146 160 165 167 169 172 171 173 174 174 175 170 168 170 174 174 174 181 185 193 206 222 242 259 270 275
287 288 292 316 351 357 37 17 344 338 289 294 312 14 80 89 82 111 135 141 139 143 148 149 160 163 165 165 170 169 173 175 175 173 167 166 176 179 182 187 186 195 213 227 237 245 250 257 258
239 279 294 356 5 357 359 350 333 319 311 323 9 41 60 71 82 174 195 173 163 166 167 157 160 158 161 161 159 167 170 167 174 173 168 177 194 180 165 171 182 201 223 238 244 248 253 253 243
263 268 307 351 24 9 336 320 318 306 312 4 11 5 13 13 359 303 253 195 162 158 157 159 155 151 151 146 151 159 160 162 182 185 175 181 184 157 147 156 179 203 218 230 241 238 229 228 225
280 291 312 344 51 349 306 308 316 319 332 44 36 10 359 354 358 11 346 1 123 137 146 153 145 144 146 144 150 156 156 162 171 182 176 171 168 171 172 181 190 197 201 206 216 212 228 231 228
271 280 305 315 250 251 268 270 270 272 68 67 54 30 20 22 23 31 29 59 107 127 137 146 142 140 142 143 152 156 162 165 173 174 182 175 168 182 191 201 209 211 209 202 209 219 234 239 238
332 329 300 275 251 230 253 260 226 204 119 116 103 70 48 46 46 44 40 50 80 109 126 135 141 140 139 142 153 159 167 167 171 167 188 188 182 190 196 209 216 222 224 224 219 225 235 239 237
296 278 268 229 198 158 240 263 202 147 145 150 116 97 76 63 60 57 53 56 70 90 104 112 128 132 139 150 158 152 161 157 167 176 196 202 202 206 207 214 223 224 225 229 234 242 248 250 249
241 249 249 167 167 148 203 270 128 141 160 140 117 108 93 74 69 63 61 64 77 87 95 101 104 121 132 138 142 135 141 140 160 180 206 220 221 219 221 224 233 236 236 232 233 235 247 253 252
232 244 246 148 168 168 223 260 153 162 161 157 132 116 105 87 75 70 67 67 79 92 96 96 95 107 119 120 118 110 106 118 156 186 210 231 239 235 230 233 239 245 247 244 241 237 233 248 256
318 314 321 288 153 204 249 252 204 174 174 167 138 121 108 94 82 79 77 72 73 81 90 95 94 93 96 91 95 95 83 37 238 231 240 249 251 250 245 243 246 249 253 254 249 248 242 240 248
331 316 304 301 111 241 255 248 214 173 174 165 144 129 118 110 102 92 87 83 78 77 84 90 89 79 81 77 84 95 103 280 273 257 262 262 259 257 249 248 248 244 245 249 250 253 256 256 253
295 284 281 278 125 233 265 257 210 179 181 166 151 138 130 124 114 104 94 84 82 79 80 85 85 81 78 78 81 83 81 271 264 268 274 275 271 263 256 248 246 243 245 252 254 251 253 255 239
263 259 281 318 324 244 251 257 196 173 161 154 147 138 135 136 129 117 102 89 79 71 69 80 82 80 75 70 68 35 17 337 320 293 275 266 268 265 257 254 253 255 249 251 252 247 244 252 246
272 333 335 314 303 274 204 254 190 170 170 173 164 147 139 133 125 119 110 100 92 83 75 80 83 84 78 72 64 31 323 300 291 288 274 272 264 261 258 257 258 258 256 258 259 255 247 246 252
285 39 298 274 269 278 241 243 222 161 181 185 175 158 144 137 132 125 118 115 108 102 93 90 87 86 79 63 54 357 332 314 312 314 299 295 288 273 262 256 256 257 256 257 259 261 256 246 245
37 275 254 245 249 258 224 207 234 180 191 182 175 160 149 142 136 130 125 122 118 113 106 104 97 89 77 48 18 2 335 322 320 314 308 304 297 289 276 265 256 257 257 258 257 255 254 252 252
209 245 260 215 214 241 184 191 251 162 171 176 170 161 153 147 145 142 141 138 134 131 131 121 103 89 67 33 359 344 322 309 299 301 303 303 298 293 286 283 273 268 263 261 259 257 254 252 252
197 230 262 286 278 348 200 230 170 83 78 135 153 152 150 152 150 150 151 147 143 143 143 120 98 85 47 9 330 319 314 300 292 296 294 289 282 279 283 286 280 275 272 270 264 260 256 256 253
213 212 269 317 296 279 245 181 120 118 112 127 145 150 157 157 154 154 152 148 145 144 134 118 107 62 4 335 321 324 318 306 298 296 291 285 281 284 288 288 283 279 275 271 268 264 261 259 256
290 314 190 217 256 270 266 219 190 176 181 174 165 161 159 155 154 155 154 152 146 139 131 127 110 1 318 318 314 304 299 300 300 298 291 286 284 286 288 285 282 281 277 274 271 269 265 263 261
187 219 234 254 274 275 290 308 30 163 171 173 173 162 157 159 159 157 153 146 138 135 147 161 165 299 306 313 312 310 303 300 297 292 288 289 290 292 290 289 287 285 283 281 278 277 276 273 272
196 206 203 218 247 227 256 277 54 101 134 150 158 156 156 156 153 151 146 140 145 155 169 180 231 272 290 305 307 301 298 298 296 293 294 296 295 294 291 289 286 285 286 284 282 282 281 279 279